Year,Month,Day,Hour,Minute,Value (Times are PST for temperature in C)
2008,08,16,00,00,17.80
2008,08,16,00,01,17.70
2008,08,16,00,02,17.50
2008,08,16,00,03,17.40
2008,08,16,00,04,17.30
2008,08,16,00,05,17.10
2008,08,16,00,06,16.90
2008,08,16,00,07,16.80
2008,08,16,00,08,16.70
2008,08,16,00,09,16.60
2008,08,16,00,10,16.40
2008,08,16,00,11,16.30
2008,08,16,00,12,16.20
2008,08,16,00,13,16.10
2008,08,16,00,14,16.00
2008,08,16,00,15,15.80
2008,08,16,00,16,15.80
2008,08,16,00,17,15.70
2008,08,16,00,18,15.60
2008,08,16,00,19,15.50
2008,08,16,00,20,15.30
2008,08,16,00,21,15.20
2008,08,16,00,22,15.10
2008,08,16,00,23,15.00
2008,08,16,00,24,14.90
2008,08,16,00,25,14.80
2008,08,16,00,26,14.80
2008,08,16,00,27,14.80
2008,08,16,00,28,14.70
2008,08,16,00,29,14.70
2008,08,16,00,30,14.60
2008,08,16,00,31,14.50
2008,08,16,00,32,14.50
2008,08,16,00,33,14.40
2008,08,16,00,34,14.40
2008,08,16,00,35,14.30
2008,08,16,00,36,14.30
2008,08,16,00,37,14.20
2008,08,16,00,38,14.20
2008,08,16,00,39,14.20
2008,08,16,00,40,14.20
2008,08,16,00,41,14.20
2008,08,16,00,42,14.20
2008,08,16,00,43,14.20
2008,08,16,00,44,14.20
2008,08,16,00,45,14.20
2008,08,16,00,46,14.20
2008,08,16,00,47,14.20
2008,08,16,00,48,14.20
2008,08,16,00,49,14.20
2008,08,16,00,50,14.20
2008,08,16,00,51,14.20
2008,08,16,00,52,14.20
2008,08,16,00,53,14.20
2008,08,16,00,54,14.20
2008,08,16,00,55,14.20
2008,08,16,00,56,14.20
2008,08,16,00,57,14.20
2008,08,16,00,58,14.20
2008,08,16,00,59,14.20
2008,08,16,01,00,14.20
2008,08,16,01,01,14.20
2008,08,16,01,02,14.20
2008,08,16,01,03,14.20
2008,08,16,01,04,14.20
2008,08,16,01,05,14.20
2008,08,16,01,06,14.30
2008,08,16,01,07,14.30
2008,08,16,01,08,14.30
2008,08,16,01,09,14.30
2008,08,16,01,10,14.40
2008,08,16,01,11,14.40
2008,08,16,01,12,14.50
2008,08,16,01,13,14.50
2008,08,16,01,14,14.50
2008,08,16,01,15,14.60
2008,08,16,01,16,14.60
2008,08,16,01,17,14.70
2008,08,16,01,18,14.70
2008,08,16,01,19,14.80
2008,08,16,01,20,14.80
2008,08,16,01,21,14.80
2008,08,16,01,22,14.90
2008,08,16,01,23,15.00
2008,08,16,01,24,15.00
2008,08,16,01,25,15.10
2008,08,16,01,26,15.10
2008,08,16,01,27,15.10
2008,08,16,01,28,15.10
2008,08,16,01,29,15.00
2008,08,16,01,30,15.00
2008,08,16,01,31,15.00
2008,08,16,01,32,15.00
2008,08,16,01,33,15.00
2008,08,16,01,34,15.00
2008,08,16,01,35,15.00
2008,08,16,01,36,15.00
2008,08,16,01,37,15.00
2008,08,16,01,38,15.00
2008,08,16,01,39,15.00
2008,08,16,01,40,15.00
2008,08,16,01,41,15.00
2008,08,16,01,42,15.00
2008,08,16,01,43,15.00
2008,08,16,01,44,15.00
2008,08,16,01,45,15.00
2008,08,16,01,46,15.00
2008,08,16,01,47,15.00
2008,08,16,01,48,15.00
2008,08,16,01,49,15.00
2008,08,16,01,50,15.00
2008,08,16,01,51,15.00
2008,08,16,01,52,15.00
2008,08,16,01,53,14.90
2008,08,16,01,54,14.90
2008,08,16,01,55,14.90
2008,08,16,01,56,14.90
2008,08,16,01,57,14.90
2008,08,16,01,58,14.90
2008,08,16,01,59,14.90
2008,08,16,02,00,14.90
2008,08,16,02,01,14.80
2008,08,16,02,02,14.80
2008,08,16,02,03,14.80
2008,08,16,02,04,14.80
2008,08,16,02,05,14.70
2008,08,16,02,06,14.70
2008,08,16,02,07,14.60
2008,08,16,02,08,14.50
2008,08,16,02,09,14.50
2008,08,16,02,10,14.50
2008,08,16,02,11,14.40
2008,08,16,02,12,14.40
2008,08,16,02,13,14.40
2008,08,16,02,14,14.40
2008,08,16,02,15,14.40
2008,08,16,02,16,14.40
2008,08,16,02,17,14.40
2008,08,16,02,18,14.40
2008,08,16,02,19,14.40
2008,08,16,02,20,14.40
2008,08,16,02,21,14.50
2008,08,16,02,22,14.50
2008,08,16,02,23,14.50
2008,08,16,02,24,14.60
2008,08,16,02,25,14.60
2008,08,16,02,26,14.70
2008,08,16,02,27,14.80
2008,08,16,02,28,14.80
2008,08,16,02,29,14.80
2008,08,16,02,30,14.80
2008,08,16,02,31,14.80
2008,08,16,02,32,14.80
2008,08,16,02,33,14.90
2008,08,16,02,34,14.90
2008,08,16,02,35,14.90
2008,08,16,02,36,15.00
2008,08,16,02,37,15.00
2008,08,16,02,38,15.00
2008,08,16,02,39,15.00
2008,08,16,02,40,15.00
2008,08,16,02,41,15.10
2008,08,16,02,42,15.10
2008,08,16,02,43,15.10
2008,08,16,02,44,15.20
2008,08,16,02,45,15.20
2008,08,16,02,46,15.20
2008,08,16,02,47,15.20
2008,08,16,02,48,15.30
2008,08,16,02,49,15.30
2008,08,16,02,50,15.30
2008,08,16,02,51,15.30
2008,08,16,02,52,15.30
2008,08,16,02,53,15.40
2008,08,16,02,54,15.40
2008,08,16,02,55,15.40
2008,08,16,02,56,15.50
2008,08,16,02,57,15.50
2008,08,16,02,58,15.50
2008,08,16,02,59,15.50
2008,08,16,03,00,15.50
2008,08,16,03,01,15.50
2008,08,16,03,02,15.50
2008,08,16,03,03,15.60
2008,08,16,03,04,15.60
2008,08,16,03,05,15.60
2008,08,16,03,06,15.60
2008,08,16,03,07,15.60
2008,08,16,03,08,15.50
2008,08,16,03,09,15.50
2008,08,16,03,10,15.50
2008,08,16,03,11,15.50
2008,08,16,03,12,15.50
2008,08,16,03,13,15.50
2008,08,16,03,14,15.50
2008,08,16,03,15,15.50
2008,08,16,03,16,15.50
2008,08,16,03,17,15.50
2008,08,16,03,18,15.50
2008,08,16,03,19,15.60
2008,08,16,03,20,15.60
2008,08,16,03,21,15.60
2008,08,16,03,22,15.70
2008,08,16,03,23,15.70
2008,08,16,03,24,15.80
2008,08,16,03,25,15.80
2008,08,16,03,26,15.80
2008,08,16,03,27,15.80
2008,08,16,03,28,15.80
2008,08,16,03,29,15.70
2008,08,16,03,30,15.60
2008,08,16,03,31,15.50
2008,08,16,03,32,15.40
2008,08,16,03,33,15.30
2008,08,16,03,34,15.20
2008,08,16,03,35,15.20
2008,08,16,03,36,15.10
2008,08,16,03,37,15.10
2008,08,16,03,38,15.10
2008,08,16,03,39,15.00
2008,08,16,03,40,15.00
2008,08,16,03,41,14.90
2008,08,16,03,42,14.80
2008,08,16,03,43,14.80
2008,08,16,03,44,14.80
2008,08,16,03,45,14.70
2008,08,16,03,46,14.60
2008,08,16,03,47,14.60
2008,08,16,03,48,14.50
2008,08,16,03,49,14.50
2008,08,16,03,50,14.50
2008,08,16,03,51,14.40
2008,08,16,03,52,14.30
2008,08,16,03,53,14.30
2008,08,16,03,54,14.20
2008,08,16,03,55,14.20
2008,08,16,03,56,14.10
2008,08,16,03,57,14.00
2008,08,16,03,58,13.90
2008,08,16,03,59,13.90
2008,08,16,04,00,13.90
2008,08,16,04,01,13.90
2008,08,16,04,02,13.80
2008,08,16,04,03,13.80
2008,08,16,04,04,13.80
2008,08,16,04,05,13.80
2008,08,16,04,06,13.80
2008,08,16,04,07,13.80
2008,08,16,04,08,13.80
2008,08,16,04,09,13.80
2008,08,16,04,10,13.80
2008,08,16,04,11,13.80
2008,08,16,04,12,13.80
2008,08,16,04,13,13.70
2008,08,16,04,14,13.70
2008,08,16,04,15,13.70
2008,08,16,04,16,13.70
2008,08,16,04,17,13.70
2008,08,16,04,18,13.70
2008,08,16,04,19,13.70
2008,08,16,04,20,13.70
2008,08,16,04,21,13.70
2008,08,16,04,22,13.70
2008,08,16,04,23,13.70
2008,08,16,04,24,13.70
2008,08,16,04,25,13.70
2008,08,16,04,26,13.70
2008,08,16,04,27,13.70
2008,08,16,04,28,13.70
2008,08,16,04,29,13.70
2008,08,16,04,30,13.70
2008,08,16,04,31,13.70
2008,08,16,04,32,13.70
2008,08,16,04,33,13.70
2008,08,16,04,34,13.70
2008,08,16,04,35,13.70
2008,08,16,04,36,13.70
2008,08,16,04,37,13.70
2008,08,16,04,38,13.70
2008,08,16,04,39,13.70
2008,08,16,04,40,13.70
2008,08,16,04,41,13.70
2008,08,16,04,42,13.60
2008,08,16,04,43,13.60
2008,08,16,04,44,13.60
2008,08,16,04,45,13.60
2008,08,16,04,46,13.60
2008,08,16,04,47,13.60
2008,08,16,04,48,13.60
2008,08,16,04,49,13.60
2008,08,16,04,50,13.50
2008,08,16,04,51,13.50
2008,08,16,04,52,13.50
2008,08,16,04,53,13.50
2008,08,16,04,54,13.50
2008,08,16,04,55,13.40
2008,08,16,04,56,13.40
2008,08,16,04,57,13.40
2008,08,16,04,58,13.40
2008,08,16,04,59,13.40
2008,08,16,05,00,13.40
2008,08,16,05,01,13.40
2008,08,16,05,02,13.50
2008,08,16,05,03,13.50
2008,08,16,05,04,13.50
2008,08,16,05,05,13.50
2008,08,16,05,06,13.50
2008,08,16,05,07,13.50
2008,08,16,05,08,13.50
2008,08,16,05,09,13.50
2008,08,16,05,10,13.50
2008,08,16,05,11,13.50
2008,08,16,05,12,13.50
2008,08,16,05,13,13.50
2008,08,16,05,14,13.50
2008,08,16,05,15,13.50
2008,08,16,05,16,13.50
2008,08,16,05,17,13.50
2008,08,16,05,18,13.50
2008,08,16,05,19,13.50
2008,08,16,05,20,13.60
2008,08,16,05,21,13.60
2008,08,16,05,22,13.60
2008,08,16,05,23,13.70
2008,08,16,05,24,13.70
2008,08,16,05,25,13.70
2008,08,16,05,26,13.70
2008,08,16,05,27,13.70
2008,08,16,05,28,13.80
2008,08,16,05,29,13.80
2008,08,16,05,30,13.90
2008,08,16,05,31,13.90
2008,08,16,05,32,14.00
2008,08,16,05,33,14.00
2008,08,16,05,34,14.10
2008,08,16,05,35,14.20
2008,08,16,05,36,14.20
2008,08,16,05,37,14.20
2008,08,16,05,38,14.20
2008,08,16,05,39,14.30
2008,08,16,05,40,14.30
2008,08,16,05,41,14.40
2008,08,16,05,42,14.50
2008,08,16,05,43,14.50
2008,08,16,05,44,14.50
2008,08,16,05,45,14.50
2008,08,16,05,46,14.50
2008,08,16,05,47,14.50
2008,08,16,05,48,14.50
2008,08,16,05,49,14.50
2008,08,16,05,50,14.50
2008,08,16,05,51,14.50
2008,08,16,05,52,14.40
2008,08,16,05,53,14.40
2008,08,16,05,54,14.30
2008,08,16,05,55,14.20
2008,08,16,05,56,14.20
2008,08,16,05,57,14.20
2008,08,16,05,58,14.20
2008,08,16,05,59,14.20
2008,08,16,06,00,14.20
2008,08,16,06,01,14.20
2008,08,16,06,02,14.20
2008,08,16,06,03,14.20
2008,08,16,06,04,14.20
2008,08,16,06,05,14.20
2008,08,16,06,06,14.20
2008,08,16,06,07,14.20
2008,08,16,06,08,14.20
2008,08,16,06,09,14.20
2008,08,16,06,10,14.20
2008,08,16,06,11,14.20
2008,08,16,06,12,14.20
2008,08,16,06,13,14.20
2008,08,16,06,14,14.20
2008,08,16,06,15,14.20
2008,08,16,06,16,14.20
2008,08,16,06,17,14.20
2008,08,16,06,18,14.20
2008,08,16,06,19,14.20
2008,08,16,06,20,14.20
2008,08,16,06,21,14.20
2008,08,16,06,22,14.20
2008,08,16,06,23,14.20
2008,08,16,06,24,14.20
2008,08,16,06,25,14.20
2008,08,16,06,26,14.30
2008,08,16,06,27,14.30
2008,08,16,06,28,14.30
2008,08,16,06,29,14.30
2008,08,16,06,30,14.30
2008,08,16,06,31,14.40
2008,08,16,06,32,14.40
2008,08,16,06,33,14.40
2008,08,16,06,34,14.50
2008,08,16,06,35,14.50
2008,08,16,06,36,14.60
2008,08,16,06,37,14.60
2008,08,16,06,38,14.70
2008,08,16,06,39,14.70
2008,08,16,06,40,14.80
2008,08,16,06,41,14.80
2008,08,16,06,42,14.80
2008,08,16,06,43,14.80
2008,08,16,06,44,14.80
2008,08,16,06,45,14.80
2008,08,16,06,46,14.90
2008,08,16,06,47,14.90
2008,08,16,06,48,15.00
2008,08,16,06,49,15.00
2008,08,16,06,50,15.00
2008,08,16,06,51,15.00
2008,08,16,06,52,15.00
2008,08,16,06,53,15.00
2008,08,16,06,54,15.10
2008,08,16,06,55,15.10
2008,08,16,06,56,15.10
2008,08,16,06,57,15.00
2008,08,16,06,58,15.00
2008,08,16,06,59,15.00
2008,08,16,07,00,15.00
2008,08,16,07,01,15.00
2008,08,16,07,02,15.00
2008,08,16,07,03,15.00
2008,08,16,07,04,15.00
2008,08,16,07,05,15.00
2008,08,16,07,06,15.00
2008,08,16,07,07,15.10
2008,08,16,07,08,15.00
2008,08,16,07,09,14.90
2008,08,16,07,10,14.90
2008,08,16,07,11,14.90
2008,08,16,07,12,14.90
2008,08,16,07,13,14.90
2008,08,16,07,14,14.90
2008,08,16,07,15,14.80
2008,08,16,07,16,14.80
2008,08,16,07,17,14.80
2008,08,16,07,18,14.80
2008,08,16,07,19,14.80
2008,08,16,07,20,14.80
2008,08,16,07,21,14.90
2008,08,16,07,22,15.00
2008,08,16,07,23,15.10
2008,08,16,07,24,15.20
2008,08,16,07,25,15.30
2008,08,16,07,26,15.40
2008,08,16,07,27,15.60
2008,08,16,07,28,15.70
2008,08,16,07,29,15.80
2008,08,16,07,30,15.90
2008,08,16,07,31,15.90
2008,08,16,07,32,15.90
2008,08,16,07,33,15.90
2008,08,16,07,34,15.80
2008,08,16,07,35,15.70
2008,08,16,07,36,15.70
2008,08,16,07,37,15.70
2008,08,16,07,38,15.70
2008,08,16,07,39,15.70
2008,08,16,07,40,15.70
2008,08,16,07,41,15.70
2008,08,16,07,42,15.80
2008,08,16,07,43,15.90
2008,08,16,07,44,16.00
2008,08,16,07,45,16.10
2008,08,16,07,46,16.10
2008,08,16,07,47,16.20
2008,08,16,07,48,16.30
2008,08,16,07,49,16.40
2008,08,16,07,50,16.50
2008,08,16,07,51,16.60
2008,08,16,07,52,16.80
2008,08,16,07,53,17.00
2008,08,16,07,54,17.20
2008,08,16,07,55,17.40
2008,08,16,07,56,17.60
2008,08,16,07,57,17.90
2008,08,16,07,58,18.10
2008,08,16,07,59,18.30
2008,08,16,08,00,18.40
2008,08,16,08,01,18.40
2008,08,16,08,02,18.30
2008,08,16,08,03,18.20
2008,08,16,08,04,18.20
2008,08,16,08,05,18.10
2008,08,16,08,06,18.10
2008,08,16,08,07,18.10
2008,08,16,08,08,18.10
2008,08,16,08,09,18.00
2008,08,16,08,10,18.10
2008,08,16,08,11,18.10
2008,08,16,08,12,18.10
2008,08,16,08,13,18.20
2008,08,16,08,14,18.20
2008,08,16,08,15,18.20
2008,08,16,08,16,18.20
2008,08,16,08,17,18.20
2008,08,16,08,18,18.20
2008,08,16,08,19,18.20
2008,08,16,08,20,18.30
2008,08,16,08,21,18.30
2008,08,16,08,22,18.40
2008,08,16,08,23,18.50
2008,08,16,08,24,18.60
2008,08,16,08,25,18.70
2008,08,16,08,26,18.90
2008,08,16,08,27,19.10
2008,08,16,08,28,19.30
2008,08,16,08,29,19.40
2008,08,16,08,30,19.50
2008,08,16,08,31,19.60
2008,08,16,08,32,19.60
2008,08,16,08,33,19.70
2008,08,16,08,34,19.70
2008,08,16,08,35,19.80
2008,08,16,08,36,19.80
2008,08,16,08,37,19.80
2008,08,16,08,38,19.90
2008,08,16,08,39,19.90
2008,08,16,08,40,19.90
2008,08,16,08,41,20.00
2008,08,16,08,42,20.10
2008,08,16,08,43,20.20
2008,08,16,08,44,20.20
2008,08,16,08,45,20.30
2008,08,16,08,46,20.40
2008,08,16,08,47,20.50
2008,08,16,08,48,20.50
2008,08,16,08,49,20.60
2008,08,16,08,50,20.70
2008,08,16,08,51,20.70
2008,08,16,08,52,20.80
2008,08,16,08,53,20.90
2008,08,16,08,54,20.90
2008,08,16,08,55,20.90
2008,08,16,08,56,20.80
2008,08,16,08,57,20.70
2008,08,16,08,58,20.70
2008,08,16,08,59,20.60
2008,08,16,09,00,20.60
2008,08,16,09,01,20.40
2008,08,16,09,02,20.30
2008,08,16,09,03,20.20
2008,08,16,09,04,20.10
2008,08,16,09,05,20.00
2008,08,16,09,06,20.00
2008,08,16,09,07,20.00
2008,08,16,09,08,19.90
2008,08,16,09,09,19.90
2008,08,16,09,10,19.70
2008,08,16,09,11,19.60
2008,08,16,09,12,19.40
2008,08,16,09,13,19.30
2008,08,16,09,14,19.20
2008,08,16,09,15,19.20
2008,08,16,09,16,19.20
2008,08,16,09,17,19.30
2008,08,16,09,18,19.30
2008,08,16,09,19,19.30
2008,08,16,09,20,19.40
2008,08,16,09,21,19.50
2008,08,16,09,22,19.60
2008,08,16,09,23,19.70
2008,08,16,09,24,19.60
2008,08,16,09,25,19.50
2008,08,16,09,26,19.30
2008,08,16,09,27,19.10
2008,08,16,09,28,18.90
2008,08,16,09,29,18.70
2008,08,16,09,30,18.50
2008,08,16,09,31,18.30
2008,08,16,09,32,18.00
2008,08,16,09,33,17.90
2008,08,16,09,34,17.70
2008,08,16,09,35,17.60
2008,08,16,09,36,17.40
2008,08,16,09,37,17.30
2008,08,16,09,38,17.30
2008,08,16,09,39,17.30
2008,08,16,09,40,17.30
2008,08,16,09,41,17.30
2008,08,16,09,42,17.40
2008,08,16,09,43,17.50
2008,08,16,09,44,17.70
2008,08,16,09,45,17.70
2008,08,16,09,46,17.80
2008,08,16,09,47,17.90
2008,08,16,09,48,17.90
2008,08,16,09,49,17.90
2008,08,16,09,50,17.80
2008,08,16,09,51,17.80
2008,08,16,09,52,17.70
2008,08,16,09,53,17.70
2008,08,16,09,54,17.80
2008,08,16,09,55,17.80
2008,08,16,09,56,17.90
2008,08,16,09,57,18.10
2008,08,16,09,58,18.20
2008,08,16,09,59,18.40
2008,08,16,10,00,18.50
2008,08,16,10,01,18.70
2008,08,16,10,02,18.90
2008,08,16,10,03,19.00
2008,08,16,10,04,19.20
2008,08,16,10,05,19.30
2008,08,16,10,06,19.60
2008,08,16,10,07,19.80
2008,08,16,10,08,19.90
2008,08,16,10,09,20.00
2008,08,16,10,10,20.20
2008,08,16,10,11,20.20
2008,08,16,10,12,20.30
2008,08,16,10,13,20.40
2008,08,16,10,14,20.40
2008,08,16,10,15,20.50
2008,08,16,10,16,20.40
2008,08,16,10,17,20.50
2008,08,16,10,18,20.50
2008,08,16,10,19,20.50
2008,08,16,10,20,20.60
2008,08,16,10,21,20.60
2008,08,16,10,22,20.60
2008,08,16,10,23,20.60
2008,08,16,10,24,20.70
2008,08,16,10,25,20.80
2008,08,16,10,26,20.90
2008,08,16,10,27,20.90
2008,08,16,10,28,20.80
2008,08,16,10,29,20.80
2008,08,16,10,30,20.80
2008,08,16,10,31,20.80
2008,08,16,10,32,20.80
2008,08,16,10,33,20.60
2008,08,16,10,34,20.60
2008,08,16,10,35,20.60
2008,08,16,10,36,20.60
2008,08,16,10,37,20.60
2008,08,16,10,38,20.50
2008,08,16,10,39,20.40
2008,08,16,10,40,20.30
2008,08,16,10,41,20.20
2008,08,16,10,42,20.20
2008,08,16,10,43,20.20
2008,08,16,10,44,20.20
2008,08,16,10,45,20.30
2008,08,16,10,46,20.30
2008,08,16,10,47,20.30
2008,08,16,10,48,20.20
2008,08,16,10,49,20.00
2008,08,16,10,50,19.80
2008,08,16,10,51,19.60
2008,08,16,10,52,19.40
2008,08,16,10,53,19.20
2008,08,16,10,54,19.00
2008,08,16,10,55,18.90
2008,08,16,10,56,18.90
2008,08,16,10,57,18.70
2008,08,16,10,58,18.70
2008,08,16,10,59,18.70
2008,08,16,11,00,18.70
2008,08,16,11,01,18.70
2008,08,16,11,02,18.70
2008,08,16,11,03,18.70
2008,08,16,11,04,18.80
2008,08,16,11,05,18.90
2008,08,16,11,06,18.90
2008,08,16,11,07,18.90
2008,08,16,11,08,18.90
2008,08,16,11,09,18.90
2008,08,16,11,10,18.90
2008,08,16,11,11,18.90
2008,08,16,11,12,18.90
2008,08,16,11,13,19.00
2008,08,16,11,14,19.00
2008,08,16,11,15,19.10
2008,08,16,11,16,19.20
2008,08,16,11,17,19.40
2008,08,16,11,18,19.50
2008,08,16,11,19,19.60
2008,08,16,11,20,19.50
2008,08,16,11,21,19.50
2008,08,16,11,22,19.50
2008,08,16,11,23,19.60
2008,08,16,11,24,19.60
2008,08,16,11,25,19.50
2008,08,16,11,26,19.50
2008,08,16,11,27,19.60
2008,08,16,11,28,19.80
2008,08,16,11,29,20.00
2008,08,16,11,30,20.20
2008,08,16,11,31,20.30
2008,08,16,11,32,20.40
2008,08,16,11,33,20.40
2008,08,16,11,34,20.30
2008,08,16,11,35,20.30
2008,08,16,11,36,20.40
2008,08,16,11,37,20.50
2008,08,16,11,38,20.50
2008,08,16,11,39,20.50
2008,08,16,11,40,20.50
2008,08,16,11,41,20.40
2008,08,16,11,42,20.30
2008,08,16,11,43,20.30
2008,08,16,11,44,20.30
2008,08,16,11,45,20.30
2008,08,16,11,46,20.40
2008,08,16,11,47,20.30
2008,08,16,11,48,20.30
2008,08,16,11,49,20.30
2008,08,16,11,50,20.30
2008,08,16,11,51,20.40
2008,08,16,11,52,20.50
2008,08,16,11,53,20.50
2008,08,16,11,54,20.70
2008,08,16,11,55,20.70
2008,08,16,11,56,20.80
2008,08,16,11,57,20.90
2008,08,16,11,58,21.00
2008,08,16,11,59,21.10
2008,08,16,12,00,21.10
2008,08,16,12,01,21.10
2008,08,16,12,02,21.10
2008,08,16,12,03,21.10
2008,08,16,12,04,21.20
2008,08,16,12,05,21.30
2008,08,16,12,06,21.30
2008,08,16,12,07,21.30
2008,08,16,12,08,21.50
2008,08,16,12,09,21.60
2008,08,16,12,10,21.60
2008,08,16,12,11,21.60
2008,08,16,12,12,21.60
2008,08,16,12,13,21.60
2008,08,16,12,14,21.70
2008,08,16,12,15,21.70
2008,08,16,12,16,21.70
2008,08,16,12,17,21.80
2008,08,16,12,18,21.90
2008,08,16,12,19,22.00
2008,08,16,12,20,22.00
2008,08,16,12,21,21.90
2008,08,16,12,22,21.80
2008,08,16,12,23,21.70
2008,08,16,12,24,21.80
2008,08,16,12,25,21.80
2008,08,16,12,26,21.80
2008,08,16,12,27,21.70
2008,08,16,12,28,21.60
2008,08,16,12,29,21.60
2008,08,16,12,30,21.70
2008,08,16,12,31,21.80
2008,08,16,12,32,22.00
2008,08,16,12,33,22.30
2008,08,16,12,34,22.40
2008,08,16,12,35,22.60
2008,08,16,12,36,22.60
2008,08,16,12,37,22.60
2008,08,16,12,38,22.60
2008,08,16,12,39,22.70
2008,08,16,12,40,22.60
2008,08,16,12,41,22.50
2008,08,16,12,42,22.50
2008,08,16,12,43,22.60
2008,08,16,12,44,22.80
2008,08,16,12,45,22.70
2008,08,16,12,46,22.60
2008,08,16,12,47,22.50
2008,08,16,12,48,22.40
2008,08,16,12,49,22.40
2008,08,16,12,50,22.40
2008,08,16,12,51,22.30
2008,08,16,12,52,22.10
2008,08,16,12,53,22.00
2008,08,16,12,54,22.10
2008,08,16,12,55,22.10
2008,08,16,12,56,22.20
2008,08,16,12,57,22.20
2008,08,16,12,58,22.20
2008,08,16,12,59,22.00
2008,08,16,13,00,22.00
2008,08,16,13,01,21.90
2008,08,16,13,02,21.90
2008,08,16,13,03,21.80
2008,08,16,13,04,21.80
2008,08,16,13,05,21.80
2008,08,16,13,06,21.80
2008,08,16,13,07,21.90
2008,08,16,13,08,22.00
2008,08,16,13,09,21.90
2008,08,16,13,10,21.90
2008,08,16,13,11,21.90
2008,08,16,13,12,22.00
2008,08,16,13,13,22.00
2008,08,16,13,14,22.10
2008,08,16,13,15,22.10
2008,08,16,13,16,22.10
2008,08,16,13,17,22.10
2008,08,16,13,18,22.20
2008,08,16,13,19,22.30
2008,08,16,13,20,22.30
2008,08,16,13,21,22.30
2008,08,16,13,22,22.40
2008,08,16,13,23,22.50
2008,08,16,13,24,22.70
2008,08,16,13,25,22.70
2008,08,16,13,26,22.80
2008,08,16,13,27,22.80
2008,08,16,13,28,22.80
2008,08,16,13,29,22.80
2008,08,16,13,30,22.60
2008,08,16,13,31,22.40
2008,08,16,13,32,22.10
2008,08,16,13,33,22.00
2008,08,16,13,34,21.90
2008,08,16,13,35,21.80
2008,08,16,13,36,21.80
2008,08,16,13,37,21.90
2008,08,16,13,38,22.10
2008,08,16,13,39,22.10
2008,08,16,13,40,22.10
2008,08,16,13,41,22.20
2008,08,16,13,42,22.30
2008,08,16,13,43,22.50
2008,08,16,13,44,22.70
2008,08,16,13,45,22.90
2008,08,16,13,46,23.10
2008,08,16,13,47,23.30
2008,08,16,13,48,23.20
2008,08,16,13,49,23.10
2008,08,16,13,50,23.10
2008,08,16,13,51,23.10
2008,08,16,13,52,23.00
2008,08,16,13,53,22.80
2008,08,16,13,54,22.70
2008,08,16,13,55,22.50
2008,08,16,13,56,22.50
2008,08,16,13,57,22.50
2008,08,16,13,58,22.30
2008,08,16,13,59,22.30
2008,08,16,14,00,22.30
2008,08,16,14,01,22.50
2008,08,16,14,02,22.60
2008,08,16,14,03,22.60
2008,08,16,14,04,22.70
2008,08,16,14,05,22.60
2008,08,16,14,06,22.70
2008,08,16,14,07,22.80
2008,08,16,14,08,22.70
2008,08,16,14,09,22.70
2008,08,16,14,10,22.90
2008,08,16,14,11,22.90
2008,08,16,14,12,22.90
2008,08,16,14,13,22.90
2008,08,16,14,14,22.90
2008,08,16,14,15,22.90
2008,08,16,14,16,22.90
2008,08,16,14,17,22.90
2008,08,16,14,18,22.90
2008,08,16,14,19,22.90
2008,08,16,14,20,22.90
2008,08,16,14,21,23.10
2008,08,16,14,22,23.10
2008,08,16,14,23,23.20
2008,08,16,14,24,23.20
2008,08,16,14,25,23.30
2008,08,16,14,26,23.30
2008,08,16,14,27,23.30
2008,08,16,14,28,23.50
2008,08,16,14,29,23.70
2008,08,16,14,30,23.70
2008,08,16,14,31,23.80
2008,08,16,14,32,23.80
2008,08,16,14,33,24.00
2008,08,16,14,34,24.10
2008,08,16,14,35,24.10
2008,08,16,14,36,24.00
2008,08,16,14,37,23.70
2008,08,16,14,38,23.60
2008,08,16,14,39,23.70
2008,08,16,14,40,23.70
2008,08,16,14,41,23.80
2008,08,16,14,42,23.90
2008,08,16,14,43,23.90
2008,08,16,14,44,23.90
2008,08,16,14,45,23.90
2008,08,16,14,46,24.00
2008,08,16,14,47,24.10
2008,08,16,14,48,24.20
2008,08,16,14,49,24.30
2008,08,16,14,50,24.20
2008,08,16,14,51,24.10
2008,08,16,14,52,24.10
2008,08,16,14,53,24.10
2008,08,16,14,54,24.10
2008,08,16,14,55,24.10
2008,08,16,14,56,24.30
2008,08,16,14,57,24.30
2008,08,16,14,58,24.30
2008,08,16,14,59,24.10
2008,08,16,15,00,24.10
2008,08,16,15,01,24.10
2008,08,16,15,02,24.10
2008,08,16,15,03,24.10
2008,08,16,15,04,24.00
2008,08,16,15,05,23.80
2008,08,16,15,06,23.80
2008,08,16,15,07,23.80
2008,08,16,15,08,23.90
2008,08,16,15,09,24.00
2008,08,16,15,10,24.10
2008,08,16,15,11,24.10
2008,08,16,15,12,24.10
2008,08,16,15,13,24.20
2008,08,16,15,14,24.30
2008,08,16,15,15,24.40
2008,08,16,15,16,24.40
2008,08,16,15,17,24.40
2008,08,16,15,18,24.30
2008,08,16,15,19,24.40
2008,08,16,15,20,24.40
2008,08,16,15,21,24.30
2008,08,16,15,22,24.30
2008,08,16,15,23,24.10
2008,08,16,15,24,24.20
2008,08,16,15,25,24.30
2008,08,16,15,26,24.30
2008,08,16,15,27,24.30
2008,08,16,15,28,24.20
2008,08,16,15,29,24.30
2008,08,16,15,30,24.40
2008,08,16,15,31,24.50
2008,08,16,15,32,24.60
2008,08,16,15,33,24.80
2008,08,16,15,34,24.90
2008,08,16,15,35,25.00
2008,08,16,15,36,25.20
2008,08,16,15,37,25.10
2008,08,16,15,38,25.10
2008,08,16,15,39,25.10
2008,08,16,15,40,25.20
2008,08,16,15,41,25.20
2008,08,16,15,42,25.20
2008,08,16,15,43,25.00
2008,08,16,15,44,24.90
2008,08,16,15,45,24.90
2008,08,16,15,46,24.90
2008,08,16,15,47,24.90
2008,08,16,15,48,25.00
2008,08,16,15,49,25.10
2008,08,16,15,50,24.90
2008,08,16,15,51,24.80
2008,08,16,15,52,24.60
2008,08,16,15,53,24.70
2008,08,16,15,54,24.70
2008,08,16,15,55,24.70
2008,08,16,15,56,24.80
2008,08,16,15,57,24.80
2008,08,16,15,58,24.90
2008,08,16,15,59,24.90
2008,08,16,16,00,24.90
2008,08,16,16,01,24.80
2008,08,16,16,02,24.80
2008,08,16,16,03,25.00
2008,08,16,16,04,25.20
2008,08,16,16,05,25.30
2008,08,16,16,06,25.30
2008,08,16,16,07,25.30
2008,08,16,16,08,25.40
2008,08,16,16,09,25.40
2008,08,16,16,10,25.30
2008,08,16,16,11,25.20
2008,08,16,16,12,25.10
2008,08,16,16,13,25.10
2008,08,16,16,14,25.10
2008,08,16,16,15,25.10
2008,08,16,16,16,25.10
2008,08,16,16,17,25.20
2008,08,16,16,18,25.20
2008,08,16,16,19,25.20
2008,08,16,16,20,25.30
2008,08,16,16,21,25.20
2008,08,16,16,22,25.20
2008,08,16,16,23,25.10
2008,08,16,16,24,25.10
2008,08,16,16,25,25.10
2008,08,16,16,26,25.10
2008,08,16,16,27,25.10
2008,08,16,16,28,25.10
2008,08,16,16,29,25.10
2008,08,16,16,30,25.10
2008,08,16,16,31,25.20
2008,08,16,16,32,25.20
2008,08,16,16,33,25.20
2008,08,16,16,34,25.10
2008,08,16,16,35,25.10
2008,08,16,16,36,25.10
2008,08,16,16,37,25.10
2008,08,16,16,38,25.10
2008,08,16,16,39,25.20
2008,08,16,16,40,25.10
2008,08,16,16,41,25.10
2008,08,16,16,42,25.10
2008,08,16,16,43,25.20
2008,08,16,16,44,25.20
2008,08,16,16,45,25.10
2008,08,16,16,46,25.00
2008,08,16,16,47,24.90
2008,08,16,16,48,24.90
2008,08,16,16,49,24.80
2008,08,16,16,50,24.70
2008,08,16,16,51,24.70
2008,08,16,16,52,24.80
2008,08,16,16,53,24.90
2008,08,16,16,54,24.90
2008,08,16,16,55,24.90
2008,08,16,16,56,25.00
2008,08,16,16,57,25.00
2008,08,16,16,58,25.10
2008,08,16,16,59,25.10
2008,08,16,17,00,25.00
2008,08,16,17,01,25.00
2008,08,16,17,02,25.00
2008,08,16,17,03,25.00
2008,08,16,17,04,24.90
2008,08,16,17,05,24.80
2008,08,16,17,06,24.80
2008,08,16,17,07,24.80
2008,08,16,17,08,24.80
2008,08,16,17,09,24.80
2008,08,16,17,10,24.80
2008,08,16,17,11,24.80
2008,08,16,17,12,24.80
2008,08,16,17,13,24.70
2008,08,16,17,14,24.70
2008,08,16,17,15,24.80
2008,08,16,17,16,24.80
2008,08,16,17,17,24.90
2008,08,16,17,18,25.00
2008,08,16,17,19,25.10